TimeEST,TemperatureF,Dew PointF,Humidity,Sea Level PressureIn,VisibilityMPH,Wind Direction,Wind SpeedMPH,Gust SpeedMPH,PrecipitationIn,Events,Conditions,WindDirDegrees,DateUTC
12:54 AM,-4.0,-13.0,65,30.48,10.0,North,9.2,-,N/A,,Overcast,350,2014-01-02 05:54:00
1:54 AM,-5.1,-14.1,65,30.48,10.0,NNW,6.9,-,N/A,,Overcast,340,2014-01-02 06:54:00
2:54 AM,-6.0,-15.0,65,30.49,10.0,North,8.1,-,N/A,,Scattered Clouds,350,2014-01-02 07:54:00
3:54 AM,-7.1,-15.0,68,30.47,10.0,NW,11.5,-,N/A,,Mostly Cloudy,320,2014-01-02 08:54:00
4:54 AM,-8.0,-15.0,71,30.46,10.0,North,8.1,-,N/A,,Mostly Cloudy,10,2014-01-02 09:54:00
5:54 AM,-8.0,-16.1,68,30.46,10.0,NNW,9.2,-,N/A,,Overcast,340,2014-01-02 10:54:00
6:54 AM,-9.0,-16.1,71,30.46,10.0,NNW,9.2,-,N/A,,Mostly Cloudy,340,2014-01-02 11:54:00
7:54 AM,-9.0,-17.0,68,30.45,10.0,North,11.5,-,N/A,,Overcast,350,2014-01-02 12:54:00
8:54 AM,-9.0,-16.1,71,30.45,1.8,North,11.5,-,0.00,Snow,Light Snow,350,2014-01-02 13:54:00
9:16 AM,-9.0,-16.1,71,30.41,2.5,North,10.4,-,0.00,Snow,Light Snow,350,2014-01-02 14:16:00
9:29 AM,-9.0,-16.1,71,30.41,1.5,North,9.2,-,0.00,Snow,Light Snow,360,2014-01-02 14:29:00
9:46 AM,-9.0,-16.1,71,30.40,2.5,North,9.2,-,0.00,Snow,Light Snow,360,2014-01-02 14:46:00
9:54 AM,-9.0,-16.1,71,30.43,4.0,North,9.2,-,0.01,Snow,Light Snow,350,2014-01-02 14:54:00
10:04 AM,-9.0,-16.1,71,30.39,1.8,North,6.9,-,0.00,Snow,Light Snow,360,2014-01-02 15:04:00
10:54 AM,-8.0,-15.0,71,30.39,1.8,NNW,11.5,-,0.00,Snow,Light Snow,330,2014-01-02 15:54:00
11:04 AM,-8.0,-15.0,71,30.35,1.8,NNW,11.5,-,0.00,Snow,Light Snow,330,2014-01-02 16:04:00
11:20 AM,-8.0,-15.0,71,30.34,1.5,NNW,10.4,-,0.01,Snow,Light Snow,340,2014-01-02 16:20:00
11:30 AM,-8.0,-15.0,71,30.34,2.5,North,8.1,-,0.01,Snow,Light Snow,350,2014-01-02 16:30:00
11:49 AM,-7.6,-16.6,65,30.32,1.2,North,10.4,-,0.01,Snow,Light Snow,360,2014-01-02 16:49:00
11:50 AM,-8.0,-16.1,68,30.35,1.2,North,10.4,-,0.01,Snow,Light Snow,360,2014-01-02 16:50:00
11:58 AM,-8.0,-16.1,68,30.31,1.8,North,10.4,-,0.00,Snow,Light Snow,350,2014-01-02 16:58:00
12:09 PM,-8.0,-16.1,68,30.30,1.2,North,10.4,-,0.00,Snow,Light Snow,350,2014-01-02 17:09:00
12:41 PM,-9.0,-16.1,71,30.28,0.8,NNW,12.7,-,0.01,Snow,Light Snow,340,2014-01-02 17:41:00
12:54 PM,-9.0,-16.1,71,30.31,0.8,North,13.8,-,0.01,Snow,Light Snow,350,2014-01-02 17:54:00
1:01 PM,-9.0,-16.1,71,30.27,1.0,NNW,11.5,-,0.00,Snow,Light Snow,340,2014-01-02 18:01:00
1:17 PM,-9.0,-17.0,68,30.26,0.8,NNW,12.7,-,0.01,Snow,Light Snow,340,2014-01-02 18:17:00
1:30 PM,-9.0,-17.0,68,30.25,1.0,NNW,11.5,-,0.01,Snow,Light Snow,340,2014-01-02 18:30:00
1:41 PM,-9.9,-17.0,71,30.25,0.8,NNW,12.7,-,0.01,Snow,Light Snow,340,2014-01-02 18:41:00
1:54 PM,-9.9,-17.0,71,30.27,1.0,NNW,12.7,-,0.01,Snow,Light Snow,340,2014-01-02 18:54:00
2:54 PM,-9.9,-17.0,71,30.26,0.8,North,10.4,-,0.01,Snow,Light Snow,360,2014-01-02 19:54:00
3:29 PM,-11.0,-18.0,71,30.21,1.0,NNW,12.7,-,0.01,Snow,Light Snow,340,2014-01-02 20:29:00
3:54 PM,-11.0,-18.0,71,30.24,0.8,NNW,13.8,-,0.01,Snow,Light Snow,340,2014-01-02 20:54:00
4:07 PM,-11.0,-18.0,71,30.21,1.0,North,12.7,-,0.00,Snow,Light Snow,350,2014-01-02 21:07:00
4:39 PM,-11.0,-18.0,71,30.21,1.8,North,13.8,-,0.01,Snow,Light Snow,360,2014-01-02 21:39:00
4:54 PM,-11.0,-18.0,71,30.25,1.2,North,11.5,-,0.01,Snow,Light Snow,350,2014-01-02 21:54:00
5:01 PM,-11.0,-18.0,71,30.21,1.5,North,11.5,-,0.00,Snow,Light Snow,350,2014-01-02 22:01:00
5:50 PM,-11.2,-18.4,70,30.20,2.0,NNW,12.7,-,0.01,Snow,Light Snow,340,2014-01-02 22:50:00
5:54 PM,-11.0,-18.0,71,30.23,2.0,North,11.5,-,0.01,Snow,Light Snow,350,2014-01-02 22:54:00
6:24 PM,-9.9,-17.0,71,30.19,2.0,North,10.4,-,0.00,Snow,Light Snow,360,2014-01-02 23:24:00
6:54 PM,-9.9,-17.0,71,30.21,2.5,North,12.7,-,0.01,Snow,Light Snow,360,2014-01-02 23:54:00
7:11 PM,-9.9,-17.0,71,30.16,1.8,North,12.7,-,0.00,Snow,Light Snow,360,2014-01-03 00:11:00
7:20 PM,-9.9,-17.0,71,30.17,2.0,North,8.1,-,0.00,Snow,Light Snow,350,2014-01-03 00:20:00
7:54 PM,-9.9,-17.0,71,30.18,1.8,North,12.7,-,0.01,Snow,Light Snow,350,2014-01-03 00:54:00
8:05 PM,-9.9,-17.0,71,30.15,2.5,NNW,11.5,-,0.00,Snow,Light Snow,340,2014-01-03 01:05:00
8:43 PM,-9.0,-16.1,71,30.13,2.0,North,12.7,-,0.00,Snow,Light Snow,360,2014-01-03 01:43:00
8:54 PM,-9.0,-16.1,71,30.16,1.5,North,9.2,-,0.00,Snow,Light Snow,360,2014-01-03 01:54:00
9:54 PM,-9.0,-16.1,71,30.15,1.8,NNW,11.5,-,0.01,Snow,Light Snow,340,2014-01-03 02:54:00
10:14 PM,-9.0,-15.0,75,30.11,2.0,North,13.8,-,0.01,Snow,Light Snow,350,2014-01-03 03:14:00
10:39 PM,-9.0,-16.1,71,30.09,1.5,North,12.7,-,0.01,Snow,Light Snow,350,2014-01-03 03:39:00
10:52 PM,-9.4,-14.8,77,30.08,1.2,North,11.5,-,0.01,Snow,Light Snow,360,2014-01-03 03:52:00
10:54 PM,-9.0,-15.0,75,30.12,1.2,North,13.8,-,0.01,Snow,Light Snow,360,2014-01-03 03:54:00
11:04 PM,-9.0,-15.0,75,30.08,1.5,North,15.0,-,0.00,Snow,Light Snow,350,2014-01-03 04:04:00
11:22 PM,-9.0,-15.0,75,30.08,2.0,North,15.0,-,0.00,Snow,Light Snow,360,2014-01-03 04:22:00
11:54 PM,-9.0,-16.1,71,30.10,2.0,North,11.5,-,0.00,Snow,Light Snow,360,2014-01-03 04:54:00